Station Historical Data
Daily Summary for July 29, 2017 Units:  English    Metric   Both
Next Day »
Daily Weekly Monthly Yearly Custom
  High: Low: Average:
Temperature: 90.3 °F 70.3 °F 78.6 °F
Dew Point: 55.2 °F 41.9 °F 49.7 °F
Humidity: 50% 19% 38%
Wind Speed: 14.0mph 0.0mph 3mph
Wind Gust: 18.0mph - -
Wind- - SE
Pressure: 29.97 in 29.86 in -
Precipitation: 0.00 in    
Historical Graphs
 
 
Tabular Data for July 29, 2017
Time Temperature Dew Point Pressure Wind Wind Speed Wind Gust Humidity Rainfall Rate (Hourly) solar Conditions
00:01 74.0 °F 52.5 °F 29.87 in East 6.0 mph 7.0 mph 47% 0.00 in 0.00 W/m2
00:06 73.9 °F 52.4 °F 29.87 in East 11.0 mph 11.0 mph 47% 0.00 in 0.00 W/m2
00:11 73.8 °F 52.3 °F 29.88 in East 11.0 mph 12.0 mph 47% 0.00 in 0.00 W/m2
00:16 73.8 °F 52.3 °F 29.88 in East 8.0 mph 8.0 mph 47% 0.00 in 0.00 W/m2
00:21 73.8 °F 52.3 °F 29.87 in ESE 6.0 mph 11.0 mph 47% 0.00 in 0.00 W/m2
00:26 73.7 °F 52.2 °F 29.87 in ESE 1.0 mph 11.0 mph 47% 0.00 in 0.00 W/m2
00:31 73.7 °F 52.2 °F 29.87 in ESE 7.0 mph 9.0 mph 47% 0.00 in 0.00 W/m2
00:36 73.7 °F 52.2 °F 29.87 in ESE 4.0 mph 11.0 mph 47% 0.00 in 0.00 W/m2
00:41 73.7 °F 52.2 °F 29.87 in East 5.0 mph 9.0 mph 47% 0.00 in 0.00 W/m2
00:46 73.7 °F 52.2 °F 29.87 in East 11.0 mph 11.0 mph 47% 0.00 in 0.00 W/m2
00:51 73.6 °F 52.2 °F 29.87 in East 6.0 mph 15.0 mph 47% 0.00 in 0.00 W/m2
00:56 73.6 °F 52.2 °F 29.87 in ESE 9.0 mph 9.0 mph 47% 0.00 in 0.00 W/m2
01:01 73.6 °F 52.2 °F 29.87 in ESE 7.0 mph 12.0 mph 47% 0.00 in 0.00 W/m2
01:06 73.6 °F 52.2 °F 29.87 in East 6.0 mph 9.0 mph 47% 0.00 in 0.00 W/m2
01:11 73.5 °F 52.1 °F 29.87 in East 8.0 mph 8.0 mph 47% 0.00 in 0.00 W/m2
01:16 73.5 °F 52.1 °F 29.87 in East 7.0 mph 12.0 mph 47% 0.00 in 0.00 W/m2
01:21 73.4 °F 52.0 °F 29.87 in ESE 8.0 mph 14.0 mph 47% 0.00 in 0.00 W/m2
01:26 73.4 °F 52.0 °F 29.87 in East 7.0 mph 14.0 mph 47% 0.00 in 0.00 W/m2
01:31 73.4 °F 52.0 °F 29.87 in ESE 4.0 mph 15.0 mph 47% 0.00 in 0.00 W/m2
01:36 73.3 °F 51.9 °F 29.87 in East 8.0 mph 13.0 mph 47% 0.00 in 0.00 W/m2
01:41 73.3 °F 51.9 °F 29.87 in ESE 9.0 mph 12.0 mph 47% 0.00 in 0.00 W/m2
01:46 73.3 °F 51.9 °F 29.87 in ESE 8.0 mph 16.0 mph 47% 0.00 in 0.00 W/m2
01:51 73.2 °F 52.4 °F 29.87 in ESE 4.0 mph 14.0 mph 48% 0.00 in 0.00 W/m2
01:56 73.2 °F 52.4 °F 29.87 in ESE 8.0 mph 13.0 mph 48% 0.00 in 0.00 W/m2
02:02 73.1 °F 52.3 °F 29.87 in ESE 9.0 mph 13.0 mph 48% 0.00 in 0.00 W/m2
02:07 73.1 °F 52.3 °F 29.87 in East 8.0 mph 14.0 mph 48% 0.00 in 0.00 W/m2
02:12 73.0 °F 52.2 °F 29.87 in ESE 2.0 mph 13.0 mph 48% 0.00 in 0.00 W/m2
02:17 73.0 °F 52.2 °F 29.87 in ESE 7.0 mph 9.0 mph 48% 0.00 in 0.00 W/m2
02:22 73.0 °F 52.2 °F 29.86 in ESE 2.0 mph 12.0 mph 48% 0.00 in 0.00 W/m2
02:27 72.9 °F 52.1 °F 29.86 in East 4.0 mph 12.0 mph 48% 0.00 in 0.00 W/m2
02:32 72.9 °F 52.1 °F 29.86 in ESE 11.0 mph 12.0 mph 48% 0.00 in 0.00 W/m2
02:37 72.9 °F 52.1 °F 29.86 in ESE 2.0 mph 14.0 mph 48% 0.00 in 0.00 W/m2
02:42 72.8 °F 52.0 °F 29.86 in ESE 7.0 mph 13.0 mph 48% 0.00 in 0.00 W/m2
02:47 72.8 °F 52.0 °F 29.87 in ESE 1.0 mph 13.0 mph 48% 0.00 in 0.00 W/m2
02:52 72.7 °F 51.9 °F 29.86 in ESE 2.0 mph 15.0 mph 48% 0.00 in 0.00 W/m2
02:57 72.7 °F 51.9 °F 29.87 in Calm   7.0 mph 48% 0.00 in 0.00 W/m2
03:02 72.7 °F 51.9 °F 29.87 in ESE 6.0 mph 13.0 mph 48% 0.00 in 0.00 W/m2
03:07 72.7 °F 51.9 °F 29.87 in ESE 6.0 mph 14.0 mph 48% 0.00 in 0.00 W/m2
03:12 72.7 °F 51.9 °F 29.87 in East 4.0 mph 14.0 mph 48% 0.00 in 0.00 W/m2
03:17 72.7 °F 51.9 °F 29.87 in ESE 9.0 mph 9.0 mph 48% 0.00 in 0.00 W/m2
03:22 72.6 °F 51.8 °F 29.86 in ESE 6.0 mph 9.0 mph 48% 0.00 in 0.00 W/m2
03:27 72.6 °F 51.2 °F 29.87 in ESE 2.0 mph 12.0 mph 47% 0.00 in 0.00 W/m2
03:32 72.6 °F 51.2 °F 29.87 in East 1.0 mph 15.0 mph 47% 0.00 in 0.00 W/m2
03:37 72.5 °F 51.2 °F 29.87 in ESE 8.0 mph 12.0 mph 47% 0.00 in 0.00 W/m2
03:42 72.5 °F 51.2 °F 29.87 in ESE 9.0 mph 13.0 mph 47% 0.00 in 0.00 W/m2
03:47 72.5 °F 51.2 °F 29.87 in ESE 8.0 mph 14.0 mph 47% 0.00 in 0.00 W/m2
03:52 72.5 °F 51.2 °F 29.87 in East 14.0 mph 16.0 mph 47% 0.00 in 0.00 W/m2
03:57 72.5 °F 51.2 °F 29.87 in ESE 8.0 mph 14.0 mph 47% 0.00 in 0.00 W/m2
04:02 72.4 °F 51.6 °F 29.87 in East 12.0 mph 12.0 mph 48% 0.00 in 0.00 W/m2
04:07 72.3 °F 51.5 °F 29.87 in East 6.0 mph 9.0 mph 48% 0.00 in 0.00 W/m2
04:12 72.1 °F 51.3 °F 29.87 in East 10.0 mph 14.0 mph 48% 0.00 in 0.00 W/m2
04:17 72.0 °F 50.7 °F 29.87 in Calm   13.0 mph 47% 0.00 in 0.00 W/m2
04:22 71.9 °F 51.2 °F 29.87 in East 5.0 mph 14.0 mph 48% 0.00 in 0.00 W/m2
04:27 71.8 °F 51.1 °F 29.87 in East 5.0 mph 14.0 mph 48% 0.00 in 0.00 W/m2
04:32 71.8 °F 51.1 °F 29.87 in ESE 2.0 mph 12.0 mph 48% 0.00 in 0.00 W/m2
04:38 71.7 °F 50.4 °F 29.87 in East 7.0 mph 15.0 mph 47% 0.00 in 0.00 W/m2
04:39 71.7 °F 50.4 °F 29.87 in East 2.0 mph 15.0 mph 47% 0.00 in 0.00 W/m2
04:44 71.6 °F 50.3 °F 29.87 in ESE 6.0 mph 14.0 mph 47% 0.00 in 0.00 W/m2
04:49 71.6 °F 50.3 °F 29.87 in ESE 2.0 mph 13.0 mph 47% 0.00 in 0.00 W/m2
04:54 71.6 °F 50.3 °F 29.87 in East 8.0 mph 13.0 mph 47% 0.00 in 0.00 W/m2
04:59 71.5 °F 50.2 °F 29.87 in ESE 5.0 mph 14.0 mph 47% 0.00 in 0.00 W/m2
05:04 71.5 °F 50.2 °F 29.87 in ESE 5.0 mph 13.0 mph 47% 0.00 in 0.00 W/m2
05:09 71.5 °F 50.2 °F 29.87 in East 4.0 mph 13.0 mph 47% 0.00 in 0.00 W/m2
05:14 71.4 °F 50.1 °F 29.88 in ESE 5.0 mph 11.0 mph 47% 0.00 in 0.00 W/m2
05:19 71.3 °F 50.0 °F 29.88 in East 6.0 mph 13.0 mph 47% 0.00 in 0.00 W/m2
05:24 71.2 °F 50.0 °F 29.88 in East 4.0 mph 12.0 mph 47% 0.00 in 0.00 W/m2
05:29 71.1 °F 49.9 °F 29.88 in East 7.0 mph 13.0 mph 47% 0.00 in 0.00 W/m2
05:34 71.0 °F 49.8 °F 29.88 in East 7.0 mph 12.0 mph 47% 0.00 in 0.00 W/m2
05:39 70.9 °F 49.7 °F 29.88 in ESE 7.0 mph 11.0 mph 47% 0.00 in 0.00 W/m2
05:44 70.7 °F 49.5 °F 29.88 in East 8.0 mph 11.0 mph 47% 0.00 in 0.00 W/m2
05:49 70.6 °F 49.4 °F 29.88 in ESE 11.0 mph 12.0 mph 47% 0.00 in 0.00 W/m2
05:54 70.6 °F 48.8 °F 29.88 in East 9.0 mph 12.0 mph 46% 0.00 in 0.00 W/m2
05:59 70.6 °F 48.8 °F 29.88 in ESE 7.0 mph 12.0 mph 46% 0.00 in 5.00 W/m2
06:04 70.5 °F 48.8 °F 29.88 in ESE 7.0 mph 12.0 mph 46% 0.00 in 7.00 W/m2
06:10 70.6 °F 48.8 °F 29.88 in East 4.0 mph 12.0 mph 46% 0.00 in 9.00 W/m2
06:15 70.5 °F 48.8 °F 29.88 in East 7.0 mph 11.0 mph 46% 0.00 in 11.00 W/m2
06:20 70.5 °F 48.8 °F 29.88 in East 2.0 mph 11.0 mph 46% 0.00 in 14.00 W/m2
06:25 70.5 °F 48.8 °F 29.88 in ESE 4.0 mph 12.0 mph 46% 0.00 in 16.00 W/m2
06:30 70.5 °F 48.8 °F 29.88 in ESE 8.0 mph 11.0 mph 46% 0.00 in 19.00 W/m2
06:35 70.5 °F 48.8 °F 29.89 in East 9.0 mph 12.0 mph 46% 0.00 in 25.00 W/m2
06:40 70.5 °F 48.8 °F 29.88 in ESE 4.0 mph 14.0 mph 46% 0.00 in 35.00 W/m2
06:45 70.4 °F 49.2 °F 29.89 in East 7.0 mph 14.0 mph 47% 0.00 in 46.00 W/m2
06:50 70.4 °F 49.2 °F 29.88 in ESE 4.0 mph 11.0 mph 47% 0.00 in 58.00 W/m2
06:55 70.4 °F 49.2 °F 29.89 in ESE 8.0 mph 12.0 mph 47% 0.00 in 72.00 W/m2
07:00 70.4 °F 49.2 °F 29.89 in East 8.0 mph 12.0 mph 47% 0.00 in 88.00 W/m2
07:05 70.4 °F 49.2 °F 29.89 in Calm   12.0 mph 47% 0.00 in 104.00 W/m2
07:10 70.3 °F 49.1 °F 29.89 in ESE 12.0 mph 12.0 mph 47% 0.00 in 121.00 W/m2
07:15 70.3 °F 49.7 °F 29.89 in ESE 2.0 mph 14.0 mph 48% 0.00 in 137.00 W/m2
07:20 70.4 °F 49.8 °F 29.89 in ESE 13.0 mph 15.0 mph 48% 0.00 in 156.00 W/m2
07:25 70.4 °F 49.8 °F 29.89 in ESE 4.0 mph 14.0 mph 48% 0.00 in 176.00 W/m2
07:30 70.4 °F 49.8 °F 29.89 in ESE 7.0 mph 11.0 mph 48% 0.00 in 193.00 W/m2
07:35 70.4 °F 50.3 °F 29.89 in East 12.0 mph 13.0 mph 49% 0.00 in 216.00 W/m2
07:40 70.4 °F 50.3 °F 29.90 in East 2.0 mph 12.0 mph 49% 0.00 in 234.00 W/m2
07:45 70.5 °F 50.4 °F 29.90 in ESE 5.0 mph 15.0 mph 49% 0.00 in 258.00 W/m2
07:50 70.6 °F 50.5 °F 29.90 in East 6.0 mph 18.0 mph 49% 0.00 in 278.00 W/m2
07:55 70.7 °F 50.6 °F 29.90 in Calm   14.0 mph 49% 0.00 in 295.00 W/m2
08:00 70.8 °F 50.7 °F 29.90 in East 4.0 mph 15.0 mph 49% 0.00 in 313.00 W/m2
08:05 71.0 °F 50.9 °F 29.90 in East 5.0 mph 15.0 mph 49% 0.00 in 330.00 W/m2
08:10 71.1 °F 51.0 °F 29.90 in ESE 5.0 mph 13.0 mph 49% 0.00 in 345.00 W/m2
08:15 71.3 °F 51.2 °F 29.90 in ESE 13.0 mph 13.0 mph 49% 0.00 in 359.00 W/m2
08:20 71.5 °F 51.9 °F 29.90 in Calm   13.0 mph 50% 0.00 in 378.00 W/m2
08:25 71.7 °F 52.1 °F 29.90 in ESE 6.0 mph 14.0 mph 50% 0.00 in 396.00 W/m2
08:30 71.9 °F 51.7 °F 29.90 in East 2.0 mph 15.0 mph 49% 0.00 in 411.00 W/m2
08:35 72.1 °F 52.5 °F 29.90 in Calm   13.0 mph 50% 0.00 in 427.00 W/m2
08:40 72.3 °F 52.1 °F 29.91 in ESE 6.0 mph 11.0 mph 49% 0.00 in 443.00 W/m2
08:45 72.6 °F 52.4 °F 29.91 in Calm   11.0 mph 49% 0.00 in 454.00 W/m2
08:50 72.8 °F 52.5 °F 29.91 in ESE 1.0 mph 9.0 mph 49% 0.00 in 475.00 W/m2
08:55 73.1 °F 53.4 °F 29.91 in ESE 4.0 mph 13.0 mph 50% 0.00 in 485.00 W/m2
09:00 73.3 °F 53.6 °F 29.91 in Calm   8.0 mph 50% 0.00 in 501.00 W/m2
09:05 73.6 °F 53.3 °F 29.91 in Calm   7.0 mph 49% 0.00 in 517.00 W/m2
09:10 73.8 °F 53.5 °F 29.91 in Calm   8.0 mph 49% 0.00 in 533.00 W/m2
09:15 74.1 °F 53.7 °F 29.91 in ESE 4.0 mph 7.0 mph 49% 0.00 in 548.00 W/m2
09:20 74.4 °F 54.0 °F 29.91 in Calm   8.0 mph 49% 0.00 in 564.00 W/m2
09:25 74.6 °F 53.1 °F 29.91 in Calm   7.0 mph 47% 0.00 in 578.00 W/m2
09:30 75.0 °F 54.6 °F 29.91 in ESE 4.0 mph 4.0 mph 49% 0.00 in 592.00 W/m2
09:35 75.3 °F 53.7 °F 29.91 in ESE 5.0 mph 7.0 mph 47% 0.00 in 605.00 W/m2
09:40 75.6 °F 54.0 °F 29.91 in ESE 4.0 mph 7.0 mph 47% 0.00 in 621.00 W/m2
09:45 76.0 °F 54.3 °F 29.92 in Calm   7.0 mph 47% 0.00 in 635.00 W/m2
09:50 76.3 °F 55.2 °F 29.92 in Calm   4.0 mph 48% 0.00 in 649.00 W/m2
09:55 76.7 °F 51.2 °F 29.92 in SE 2.0 mph 8.0 mph 41% 0.00 in 661.00 W/m2
10:00 77.3 °F 53.7 °F 29.92 in SE 1.0 mph 5.0 mph 44% 0.00 in 677.00 W/m2
10:05 77.8 °F 52.2 °F 29.92 in Calm   6.0 mph 41% 0.00 in 687.00 W/m2
10:10 78.2 °F 52.6 °F 29.92 in South 1.0 mph 7.0 mph 41% 0.00 in 701.00 W/m2
10:15 78.6 °F 53.6 °F 29.92 in Calm   1.0 mph 42% 0.00 in 710.00 W/m2
10:20 78.9 °F 51.2 °F 29.92 in Calm   6.0 mph 38% 0.00 in 726.00 W/m2
10:26 79.2 °F 52.1 °F 29.92 in Calm   3.0 mph 39% 0.00 in 733.00 W/m2
10:31 79.6 °F 52.5 °F 29.93 in Calm   4.0 mph 39% 0.00 in 744.00 W/m2
10:36 79.9 °F 52.0 °F 29.93 in SSW 2.0 mph 3.0 mph 38% 0.00 in 756.00 W/m2
10:41 80.2 °F 51.6 °F 29.93 in Calm   6.0 mph 37% 0.00 in 766.00 W/m2
10:46 80.7 °F 51.3 °F 29.93 in SSW 2.0 mph 3.0 mph 36% 0.00 in 780.00 W/m2
10:51 81.0 °F 49.2 °F 29.93 in Calm   3.0 mph 33% 0.00 in 788.00 W/m2
10:56 81.4 °F 46.1 °F 29.93 in Calm   4.0 mph 29% 0.00 in 798.00 W/m2
11:06 82.0 °F 49.3 °F 29.93 in WSW 4.0 mph 7.0 mph 32% 0.00 in 817.00 W/m2
11:11 82.4 °F 47.0 °F 29.93 in West 2.0 mph 6.0 mph 29% 0.00 in 823.00 W/m2
11:16 83.0 °F 48.4 °F 29.93 in West 2.0 mph 5.0 mph 30% 0.00 in 826.00 W/m2
11:21 83.2 °F 49.5 °F 29.93 in Calm   5.0 mph 31% 0.00 in 837.00 W/m2
11:26 83.6 °F 48.0 °F 29.93 in Calm   8.0 mph 29% 0.00 in 846.00 W/m2
11:31 83.9 °F 47.3 °F 29.93 in West 4.0 mph 6.0 mph 28% 0.00 in 851.00 W/m2
11:36 84.3 °F 45.7 °F 29.93 in WSW 2.0 mph 8.0 mph 26% 0.00 in 858.00 W/m2
11:41 84.6 °F 43.9 °F 29.93 in Calm   5.0 mph 24% 0.00 in 870.00 W/m2
11:46 84.8 °F 45.1 °F 29.94 in West 1.0 mph 4.0 mph 25% 0.00 in 874.00 W/m2
11:51 85.1 °F 45.4 °F 29.94 in West 2.0 mph 7.0 mph 25% 0.00 in 881.00 W/m2
11:56 85.2 °F 46.5 °F 29.94 in Calm   3.0 mph 26% 0.00 in 882.00 W/m2
12:01 85.4 °F 45.6 °F 29.94 in Calm   3.0 mph 25% 0.00 in 893.00 W/m2
12:06 85.8 °F 46.0 °F 29.94 in Calm   8.0 mph 25% 0.00 in 893.00 W/m2
12:11 86.2 °F 48.3 °F 29.94 in Calm   3.0 mph 27% 0.00 in 898.00 W/m2
12:16 86.4 °F 47.5 °F 29.94 in WSW 1.0 mph 6.0 mph 26% 0.00 in 900.00 W/m2
12:21 86.6 °F 47.7 °F 29.94 in Calm   6.0 mph 26% 0.00 in 904.00 W/m2
12:26 86.6 °F 46.6 °F 29.94 in WNW 5.0 mph 6.0 mph 25% 0.00 in 907.00 W/m2
12:31 86.7 °F 46.7 °F 29.94 in Calm   6.0 mph 25% 0.00 in 907.00 W/m2
12:36 86.9 °F 45.8 °F 29.94 in Calm   7.0 mph 24% 0.00 in 912.00 W/m2
12:41 87.4 °F 46.2 °F 29.94 in Calm   3.0 mph 24% 0.00 in 912.00 W/m2
12:46 87.6 °F 47.5 °F 29.94 in West 1.0 mph 7.0 mph 25% 0.00 in 914.00 W/m2
12:51 87.7 °F 47.5 °F 29.94 in West 4.0 mph 8.0 mph 25% 0.00 in 914.00 W/m2
12:56 87.8 °F 47.6 °F 29.94 in Calm   6.0 mph 25% 0.00 in 914.00 W/m2
13:01 88.0 °F 47.8 °F 29.94 in West 2.0 mph 7.0 mph 25% 0.00 in 916.00 W/m2
13:06 88.2 °F 46.9 °F 29.94 in West 2.0 mph 8.0 mph 24% 0.00 in 918.00 W/m2
13:11 88.6 °F 46.1 °F 29.94 in Calm   7.0 mph 23% 0.00 in 918.00 W/m2
13:16 89.1 °F 47.6 °F 29.94 in West 3.0 mph 8.0 mph 24% 0.00 in 918.00 W/m2
13:21 89.0 °F 46.4 °F 29.94 in Calm   9.0 mph 23% 0.00 in 916.00 W/m2
13:26 89.1 °F 46.5 °F 29.94 in WSW 7.0 mph 9.0 mph 23% 0.00 in 916.00 W/m2
13:31 89.3 °F 44.3 °F 29.94 in WSW 1.0 mph 10.0 mph 21% 0.00 in 914.00 W/m2
13:36 89.3 °F 45.5 °F 29.94 in West 9.0 mph 9.0 mph 22% 0.00 in 914.00 W/m2
13:41 89.3 °F 44.3 °F 29.94 in West 5.0 mph 10.0 mph 21% 0.00 in 912.00 W/m2
13:51 89.5 °F 44.5 °F 29.94 in Calm   7.0 mph 21% 0.00 in 909.00 W/m2
13:56 89.3 °F 44.3 °F 29.94 in Calm   8.0 mph 21% 0.00 in 902.00 W/m2
14:01 89.4 °F 44.4 °F 29.94 in Calm   7.0 mph 21% 0.00 in 900.00 W/m2
14:06 89.3 °F 45.5 °F 29.94 in Calm   8.0 mph 22% 0.00 in 896.00 W/m2
14:11 89.2 °F 44.2 °F 29.94 in Calm   5.0 mph 21% 0.00 in 888.00 W/m2
14:16 89.0 °F 42.8 °F 29.94 in Calm   12.0 mph 20% 0.00 in 884.00 W/m2
14:21 89.3 °F 44.3 °F 29.94 in SW 8.0 mph 11.0 mph 21% 0.00 in 877.00 W/m2
14:26 89.7 °F 42.0 °F 29.94 in Calm   8.0 mph 19% 0.00 in 874.00 W/m2
14:31 90.2 °F 43.8 °F 29.94 in Calm   5.0 mph 20% 0.00 in 870.00 W/m2
14:36 90.0 °F 42.2 °F 29.94 in West 4.0 mph 8.0 mph 19% 0.00 in 860.00 W/m2
14:41 89.6 °F 41.9 °F 29.94 in Calm   12.0 mph 19% 0.00 in 854.00 W/m2
14:46 89.5 °F 43.2 °F 29.94 in Calm   8.0 mph 20% 0.00 in 849.00 W/m2
14:51 89.7 °F 43.3 °F 29.94 in SW 1.0 mph 9.0 mph 20% 0.00 in 840.00 W/m2
14:56 89.8 °F 43.4 °F 29.94 in Calm   5.0 mph 20% 0.00 in 833.00 W/m2
15:01 90.0 °F 43.6 °F 29.94 in SW 3.0 mph 5.0 mph 20% 0.00 in 824.00 W/m2
15:06 90.1 °F 45.0 °F 29.94 in SW 4.0 mph 4.0 mph 21% 0.00 in 816.00 W/m2
15:11 90.2 °F 43.8 °F 29.94 in Calm   2.0 mph 20% 0.00 in 807.00 W/m2
15:16 90.3 °F 45.1 °F 29.93 in SSW 1.0 mph 1.0 mph 21% 0.00 in 798.00 W/m2
15:21 90.1 °F 45.0 °F 29.93 in Calm   4.0 mph 21% 0.00 in 788.00 W/m2
15:26 89.8 °F 42.1 °F 29.93 in West 5.0 mph 5.0 mph 19% 0.00 in 777.00 W/m2
15:31 89.9 °F 43.5 °F 29.93 in Calm   2.0 mph 20% 0.00 in 768.00 W/m2
15:36 89.8 °F 45.9 °F 29.93 in WNW 4.0 mph 9.0 mph 22% 0.00 in 759.00 W/m2
15:41 89.7 °F 44.6 °F 29.93 in Calm   4.0 mph 21% 0.00 in 747.00 W/m2
15:46 89.7 °F 45.8 °F 29.93 in Calm   6.0 mph 22% 0.00 in 733.00 W/m2
15:51 89.4 °F 45.6 °F 29.93 in SW 5.0 mph 9.0 mph 22% 0.00 in 722.00 W/m2
15:56 89.3 °F 45.5 °F 29.93 in Calm     22% 0.00 in 708.00 W/m2
16:01 89.2 °F 45.4 °F 29.92 in SW 1.0 mph 2.0 mph 22% 0.00 in 694.00 W/m2
16:06 89.1 °F 45.3 °F 29.93 in West 1.0 mph 6.0 mph 22% 0.00 in 682.00 W/m2
16:11 89.0 °F 45.3 °F 29.93 in Calm     22% 0.00 in 670.00 W/m2
16:16 89.0 °F 47.6 °F 29.93 in West 3.0 mph 5.0 mph 24% 0.00 in 657.00 W/m2
16:18 88.9 °F 46.3 °F 29.92 in West 1.0 mph 6.0 mph 23% 0.00 in 652.00 W/m2
16:23 88.7 °F 47.3 °F 29.92 in Calm     24% 0.00 in 640.00 W/m2
16:28 88.5 °F 48.2 °F 29.92 in Calm   6.0 mph 25% 0.00 in 624.00 W/m2
16:33 88.4 °F 47.1 °F 29.92 in Calm   3.0 mph 24% 0.00 in 612.00 W/m2
16:38 88.3 °F 47.0 °F 29.92 in WSW 5.0 mph 5.0 mph 24% 0.00 in 598.00 W/m2
16:43 88.2 °F 46.9 °F 29.92 in Calm   8.0 mph 24% 0.00 in 585.00 W/m2
16:48 88.2 °F 45.8 °F 29.92 in Calm   6.0 mph 23% 0.00 in 570.00 W/m2
16:53 88.3 °F 45.8 °F 29.92 in Calm   5.0 mph 23% 0.00 in 554.00 W/m2
16:58 88.3 °F 47.0 °F 29.92 in WSW 3.0 mph 10.0 mph 24% 0.00 in 538.00 W/m2
17:03 88.5 °F 48.2 °F 29.92 in WSW 1.0 mph 7.0 mph 25% 0.00 in 522.00 W/m2
17:08 88.5 °F 47.1 °F 29.92 in Calm   7.0 mph 24% 0.00 in 508.00 W/m2
17:13 88.3 °F 49.1 °F 29.92 in Calm   4.0 mph 26% 0.00 in 494.00 W/m2
17:18 88.1 °F 48.9 °F 29.92 in Calm   6.0 mph 26% 0.00 in 478.00 W/m2
17:23 88.1 °F 48.9 °F 29.92 in Calm   4.0 mph 26% 0.00 in 466.00 W/m2
17:28 88.0 °F 49.9 °F 29.92 in Calm   1.0 mph 27% 0.00 in 450.00 W/m2
17:34 87.7 °F 48.6 °F 29.92 in Calm   3.0 mph 26% 0.00 in 436.00 W/m2
17:39 87.6 °F 49.5 °F 29.92 in Calm   2.0 mph 27% 0.00 in 418.00 W/m2
17:44 87.4 °F 50.3 °F 29.92 in Calm   3.0 mph 28% 0.00 in 404.00 W/m2
17:49 87.2 °F 49.2 °F 29.92 in Calm   1.0 mph 27% 0.00 in 390.00 W/m2
17:54 87.1 °F 50.1 °F 29.92 in Calm   1.0 mph 28% 0.00 in 373.00 W/m2
17:59 87.0 °F 50.9 °F 29.92 in Calm   1.0 mph 29% 0.00 in 359.00 W/m2
18:04 86.8 °F 51.7 °F 29.91 in Calm   1.0 mph 30% 0.00 in 343.00 W/m2
18:14 86.5 °F 51.4 °F 29.91 in Calm   1.0 mph 30% 0.00 in 315.00 W/m2
18:19 86.4 °F 50.4 °F 29.92 in SW 1.0 mph 7.0 mph 29% 0.00 in 299.00 W/m2
18:24 86.3 °F 51.2 °F 29.92 in SW 1.0 mph 4.0 mph 30% 0.00 in 281.00 W/m2
18:29 86.2 °F 50.2 °F 29.92 in Calm   2.0 mph 29% 0.00 in 264.00 W/m2
18:34 86.0 °F 51.9 °F 29.92 in Calm   4.0 mph 31% 0.00 in 248.00 W/m2
18:39 85.8 °F 51.7 °F 29.92 in Calm   5.0 mph 31% 0.00 in 230.00 W/m2
18:44 85.5 °F 52.3 °F 29.92 in Calm     32% 0.00 in 216.00 W/m2
18:54 84.7 °F 52.4 °F 29.92 in WSW 2.0 mph 3.0 mph 33% 0.00 in 186.00 W/m2
18:59 84.3 °F 52.1 °F 29.92 in WSW 1.0 mph 4.0 mph 33% 0.00 in 167.00 W/m2
19:04 84.0 °F 52.6 °F 29.92 in Calm   3.0 mph 34% 0.00 in 149.00 W/m2
19:14 83.0 °F 53.3 °F 29.92 in Calm   3.0 mph 36% 0.00 in 111.00 W/m2
19:19 82.7 °F 53.1 °F 29.92 in Calm   5.0 mph 36% 0.00 in 93.00 W/m2
19:24 82.5 °F 53.6 °F 29.92 in Calm   4.0 mph 37% 0.00 in 76.00 W/m2
19:29 82.1 °F 53.3 °F 29.92 in Calm   4.0 mph 37% 0.00 in 62.00 W/m2
19:34 81.8 °F 53.0 °F 29.92 in Calm   1.0 mph 37% 0.00 in 51.00 W/m2
19:39 81.5 °F 52.7 °F 29.92 in WSW 1.0 mph 1.0 mph 37% 0.00 in 40.00 W/m2
19:40 81.4 °F 52.7 °F 29.92 in Calm   1.0 mph 37% 0.00 in 35.00 W/m2
19:45 80.9 °F 52.9 °F 29.92 in WSW 2.0 mph 2.0 mph 38% 0.00 in 28.00 W/m2
19:50 80.5 °F 52.6 °F 29.92 in Calm   1.0 mph 38% 0.00 in 21.00 W/m2
19:55 80.1 °F 52.2 °F 29.92 in Calm   2.0 mph 38% 0.00 in 16.00 W/m2
20:00 79.7 °F 52.6 °F 29.92 in WSW 2.0 mph 4.0 mph 39% 0.00 in 14.00 W/m2
20:05 79.3 °F 52.2 °F 29.93 in Calm   1.0 mph 39% 0.00 in 12.00 W/m2
20:10 78.9 °F 51.9 °F 29.93 in WSW 2.0 mph 2.0 mph 39% 0.00 in 9.00 W/m2
20:15 78.6 °F 51.6 °F 29.93 in Calm   5.0 mph 39% 0.00 in 7.00 W/m2
20:20 78.2 °F 51.2 °F 29.93 in Calm   6.0 mph 39% 0.00 in 5.00 W/m2
20:25 77.8 °F 50.9 °F 29.93 in Calm   4.0 mph 39% 0.00 in 0.00 W/m2
20:30 77.6 °F 50.7 °F 29.93 in Calm   3.0 mph 39% 0.00 in 0.00 W/m2
20:35 77.4 °F 50.5 °F 29.93 in Calm   1.0 mph 39% 0.00 in 0.00 W/m2
20:40 77.3 °F 50.4 °F 29.93 in Calm   1.0 mph 39% 0.00 in 0.00 W/m2
20:45 77.1 °F 50.3 °F 29.93 in Calm   1.0 mph 39% 0.00 in 0.00 W/m2
20:51 76.9 °F 50.1 °F 29.94 in Calm   4.0 mph 39% 0.00 in 0.00 W/m2
20:55 76.7 °F 50.6 °F 29.94 in Calm     40% 0.00 in 0.00 W/m2
21:00 76.4 °F 50.3 °F 29.94 in Calm   1.0 mph 40% 0.00 in 0.00 W/m2
21:03 76.3 °F 50.2 °F 29.95 in Calm     40% 0.00 in 0.00 W/m2
21:08 76.1 °F 50.0 °F 29.95 in Calm   1.0 mph 40% 0.00 in 0.00 W/m2
21:13 76.0 °F 50.6 °F 29.95 in Calm   1.0 mph 41% 0.00 in 0.00 W/m2
21:18 75.9 °F 50.5 °F 29.95 in Calm     41% 0.00 in 0.00 W/m2
21:23 75.7 °F 51.0 °F 29.96 in Calm     42% 0.00 in 0.00 W/m2
21:28 75.6 °F 50.9 °F 29.96 in Calm     42% 0.00 in 0.00 W/m2
21:33 75.4 °F 50.7 °F 29.96 in Calm     42% 0.00 in 0.00 W/m2
21:38 75.2 °F 51.2 °F 29.96 in Calm     43% 0.00 in 0.00 W/m2
21:43 75.0 °F 51.0 °F 29.96 in Calm     43% 0.00 in 0.00 W/m2
21:48 74.9 °F 50.9 °F 29.96 in Calm     43% 0.00 in 0.00 W/m2
21:53 74.8 °F 51.5 °F 29.96 in Calm     44% 0.00 in 0.00 W/m2
21:58 74.8 °F 51.5 °F 29.96 in Calm     44% 0.00 in 0.00 W/m2
22:03 74.7 °F 51.4 °F 29.97 in Calm     44% 0.00 in 0.00 W/m2
22:08 74.6 °F 51.3 °F 29.97 in Calm   1.0 mph 44% 0.00 in 0.00 W/m2
22:13 74.6 °F 51.3 °F 29.97 in Calm   1.0 mph 44% 0.00 in 0.00 W/m2
22:18 74.5 °F 51.2 °F 29.97 in Calm     44% 0.00 in 0.00 W/m2
22:23 74.5 °F 51.2 °F 29.97 in Calm   3.0 mph 44% 0.00 in 0.00 W/m2
22:33 74.4 °F 49.8 °F 29.96 in Calm   4.0 mph 42% 0.00 in 0.00 W/m2
22:38 74.4 °F 50.5 °F 29.96 in Calm   5.0 mph 43% 0.00 in 0.00 W/m2
22:43 74.3 °F 49.8 °F 29.96 in SE 2.0 mph 8.0 mph 42% 0.00 in 0.00 W/m2
22:48 74.3 °F 49.8 °F 29.96 in SE 2.0 mph 9.0 mph 42% 0.00 in 0.00 W/m2
22:53 74.2 °F 49.7 °F 29.96 in ESE 4.0 mph 9.0 mph 42% 0.00 in 0.00 W/m2
22:58 74.2 °F 50.3 °F 29.96 in ESE 4.0 mph 9.0 mph 43% 0.00 in 0.00 W/m2
23:03 74.1 °F 49.6 °F 29.96 in ESE 5.0 mph 8.0 mph 42% 0.00 in 0.00 W/m2
23:08 74.0 °F 49.5 °F 29.96 in East 5.0 mph 8.0 mph 42% 0.00 in 0.00 W/m2
23:13 74.0 °F 49.5 °F 29.96 in East 7.0 mph 7.0 mph 42% 0.00 in 0.00 W/m2
23:18 73.9 °F 49.4 °F 29.96 in East 6.0 mph 9.0 mph 42% 0.00 in 0.00 W/m2
23:23 73.9 °F 49.4 °F 29.96 in East 4.0 mph 7.0 mph 42% 0.00 in 0.00 W/m2
23:28 73.9 °F 49.4 °F 29.96 in Calm   9.0 mph 42% 0.00 in 0.00 W/m2
23:34 73.9 °F 49.4 °F 29.96 in East 2.0 mph 7.0 mph 42% 0.00 in 0.00 W/m2
23:39 73.9 °F 49.4 °F 29.96 in Calm   6.0 mph 42% 0.00 in 0.00 W/m2
23:44 73.9 °F 49.4 °F 29.96 in East 4.0 mph 8.0 mph 42% 0.00 in 0.00 W/m2
23:49 73.9 °F 49.4 °F 29.96 in East 5.0 mph 8.0 mph 42% 0.00 in 0.00 W/m2
23:54 73.8 °F 49.3 °F 29.97 in East 1.0 mph 11.0 mph 42% 0.00 in 0.00 W/m2
23:59 73.7 °F 49.2 °F 29.97 in East 7.0 mph 9.0 mph 42% 0.00 in 0.00 W/m2
Foresthill Weather
 WU-history PHP script courtesy of   Juneau County Weather.
powered by Cumulus v1.9.3 (1059)
Ambient Weather VWS v14.00
Top Contact Website Map Copyright © 2007 - 2018 Foresthillweather.com Never base important decisions on this or any weather information obtained from the Internet